Waco, TX

5:26 AM CDT on August 17, 2017 (GMT -0500)
Waco Regional

Weather History for KACT - June, 2012

Change the Weather History Date:

Saturday, June 16, 2012

  Actual Average Record
Temperature  
Mean Temperature 86 °F 82 °F  
Max Temperature 96 °F 92 °F 103 °F (1998)
Min Temperature 76 °F 71 °F 56 °F (1989)
Degree Days  
Heating Degree Days 0 0  
Month to date heating degree days 0 0  
Since 1 June heating degree days 0 0  
Since 1 July heating degree days 1758 2142  
Cooling Degree Days 21 16  
Month to date cooling degree days 284 240  
Year to date cooling degree days 949 692  
Since 1 June cooling degree days 284 240  
Growing Degree Days 36 (Base 50)    
Moisture  
Dew Point 69 °F    
Average Humidity 61    
Maximum Humidity 87    
Minimum Humidity 35    
Precipitation  
Precipitation 0.00 in 0.12 in 3.01 in (1964)
Month to date precipitation 1.05 2.15  
Year to date precipitation 20.88 17.04  
Sea Level Pressure  
Sea Level Pressure 29.98 in    
Wind  
Wind Speed 11 mph (SSE)    
Max Wind Speed 22 mph    
Max Gust Speed 26 mph    
Visibility 10 miles    
Events      
T = Trace of Precipitation, MM = Missing Value Source: NWS Daily Summary

Daily Weather History Graph

Daily Weather History Graph

Search for Another Location

Airport or City:

Trip Planner

Search our weather history database for the weather conditions in past years. The results will help you decide how hot, cold, wet, or windy it might be!

Date:

Astronomy

Jun. 16, 2012 Rise Set
Actual Time 6:23 AM CDT 8:36 PM CDT
Civil Twilight 5:55 AM CDT 9:04 PM CDT
Nautical Twilight 5:21 AM CDT 9:38 PM CDT
Astronomical Twilight 4:44 AM CDT 10:15 PM CDT
Moon 4:08 AM CDT (6/16) 6:16 PM CDT (6/16)
Length of Visible Light 15h 08m
Length of Day
14h 12m
Waning Crescent, 8% of the Moon is Illuminated
Jun 16
Waning Crescent
Jun 19
New
Jun 26
First Quarter
Jul 3
Full
Jul 10
Last Quarter

Hourly Weather History & Observations

Time (CDT) Temp. Heat Index Dew Point Humidity Pressure Visibility Wind Dir Wind Speed Gust Speed Precip Events Conditions
12:51 AM 82.0 °F 85.5 °F 69.1 °F 65% 29.93 in 10.0 mi South 13.8 mph - N/A   Clear
1:51 AM 80.1 °F 82.9 °F 69.1 °F 69% 29.97 in 10.0 mi SE 9.2 mph - N/A   Clear
2:51 AM 79.0 °F - 70.0 °F 74% 29.96 in 10.0 mi South 9.2 mph - N/A   Clear
3:51 AM 78.1 °F - 71.1 °F 79% 29.97 in 10.0 mi SSE 10.4 mph - N/A   Clear
4:51 AM 77.0 °F - 72.0 °F 84% 29.97 in 10.0 mi South 11.5 mph - N/A   Scattered Clouds
5:51 AM 75.9 °F - 72.0 °F 87% 29.99 in 10.0 mi SSE 11.5 mph - N/A   Clear
6:51 AM 75.9 °F - 72.0 °F 87% 29.99 in 10.0 mi SSE 12.7 mph - N/A   Clear
7:27 AM 77.0 °F - 73.4 °F 89% 30.02 in 10.0 mi South 9.2 mph - N/A   Partly Cloudy
7:51 AM 78.1 °F - 73.0 °F 84% 30.00 in 10.0 mi South 11.5 mph - N/A   Scattered Clouds
8:51 AM 81.0 °F 85.2 °F 72.0 °F 74% 30.01 in 10.0 mi South 12.7 mph - N/A   Partly Cloudy
9:12 AM 82.4 °F 87.2 °F 71.6 °F 70% 30.04 in 10.0 mi South 11.5 mph - N/A   Mostly Cloudy
9:51 AM 82.4 °F 87.2 °F 71.6 °F 70% 30.05 in 10.0 mi South 10.4 mph - N/A   Mostly Cloudy
10:51 AM 87.1 °F 92.0 °F 70.0 °F 57% 30.03 in 10.0 mi SSE 8.1 mph - N/A   Partly Cloudy
11:51 AM 89.1 °F 93.7 °F 69.1 °F 52% 30.02 in 10.0 mi South 10.4 mph - N/A   Clear
12:51 PM 91.0 °F 95.2 °F 68.0 °F 47% 30.01 in 10.0 mi South 9.2 mph - N/A   Clear
1:51 PM 91.9 °F 95.4 °F 66.9 °F 44% 29.99 in 10.0 mi South 8.1 mph - N/A   Partly Cloudy
2:51 PM 93.9 °F 97.0 °F 66.0 °F 40% 29.97 in 10.0 mi South 11.5 mph - N/A   Partly Cloudy
3:51 PM 96.1 °F 98.8 °F 64.9 °F 36% 29.96 in 10.0 mi South 9.2 mph - N/A   Partly Cloudy
4:51 PM 95.0 °F 97.4 °F 64.9 °F 37% 29.94 in 10.0 mi ESE 8.1 mph 16.1 mph N/A   Clear
5:51 PM 93.9 °F 96.1 °F 64.9 °F 38% 29.91 in 10.0 mi SE 15.0 mph - N/A   Clear
6:51 PM 93.0 °F 94.6 °F 64.0 °F 38% 29.91 in 10.0 mi SE 15.0 mph - N/A   Clear
7:51 PM 90.0 °F 91.7 °F 64.9 °F 43% 29.95 in 10.0 mi SE 11.5 mph - N/A   Mostly Cloudy
8:51 PM 82.9 °F 85.0 °F 66.0 °F 56% 29.97 in 10.0 mi SE 17.3 mph 25.3 mph N/A   Clear
9:51 PM 81.0 °F 83.0 °F 66.0 °F 60% 29.99 in 10.0 mi ESE 10.4 mph - N/A   Clear
10:51 PM 79.0 °F - 66.0 °F 64% 30.01 in 10.0 mi SE 11.5 mph - N/A   Clear
11:51 PM 78.1 °F - 66.0 °F 66% 30.01 in 10.0 mi SSE 9.2 mph - N/A   Clear